Location: Sungai Bunut
(2.6333°N, 113.7333°E)
Time: 09:21:20
(UTC+00:00)

Courier 1B - Pass Details

Date: 03 December 2023
Orbit: 962 x 1209 km, 28.3° (Epoch: 03 March)

Event Time Altitude Azimuth Distance (km) Brightness Sun altitude
Rises 11:26:12 0° 281° (W) 3,783 11.6 -17.5°
Reaches altitude 10° 11:29:06 10° 272° (W) 2,868 10.9 -18.2°
Maximum altitude 11:35:24 35° 209° (SSW) 1,702 9.2 -19.6°
Drops below altitude 10° 11:42:05 10° 145° (SE) 3,037 9.9 -21.2°
Sets 11:45:15 0° 136° (SE) 4,033 10.5 -21.9°
